Bloomington, IN

8:06 PM EST on February 19, 2017 (GMT -0500)
Monroe County

Weather History for KBMG - May, 2014

Change the Weather History Date:

Sunday, May 25, 2014

  Actual Average Record
Temperature  
Mean Temperature 67 °F 65 °F  
Max Temperature 77 °F 77 °F 87 °F (2006)
Min Temperature 56 °F 54 °F 43 °F (2013)
Degree Days  
Heating Degree Days 0 3  
Month to date heating degree days 123 124  
Since 1 July heating degree days 5830 5238  
Cooling Degree Days 2 3  
Month to date cooling degree days 65 44  
Year to date cooling degree days 74 63  
Growing Degree Days 16 (Base 50)    
Moisture  
Dew Point 53 °F    
Average Humidity 65    
Maximum Humidity 87    
Minimum Humidity 43    
Precipitation  
Precipitation 0.00 in 0.16 in 1.08 in (2011)
Month to date precipitation 4.31 4.25  
Year to date precipitation 18.52 18.90  
Sea Level Pressure  
Sea Level Pressure 30.12 in    
Wind  
Wind Speed 4 mph (SSE)    
Max Wind Speed 14 mph    
Max Gust Speed 17 mph    
Visibility 10 miles    
Events      
T = Trace of Precipitation, MM = Missing Value Source: NWS Daily Summary

Daily Weather History Graph

Daily Weather History Graph

Search for Another Location

Airport or City:

Trip Planner

Search our weather history database for the weather conditions in past years. The results will help you decide how hot, cold, wet, or windy it might be!

Date:

Astronomy

May. 25, 2014 Rise Set
Actual Time 6:25 AM EDT 9:01 PM EDT
Civil Twilight 5:54 AM EDT 9:32 PM EDT
Nautical Twilight 5:16 AM EDT 10:11 PM EDT
Astronomical Twilight 4:32 AM EDT 10:54 PM EDT
Moon 4:28 AM EDT (5/25) 6:02 PM EDT (5/25)
Length of Visible Light 15h 37m
Length of Day
14h 35m
Waning Crescent, 10% of the Moon is Illuminated
May 25
Waning Crescent
May 28
New
Jun 5
First Quarter
Jun 13
Full
Jun 19
Last Quarter

Hourly Weather History & Observations

Time (EDT) Temp. Dew Point Humidity Pressure Visibility Wind Dir Wind Speed Gust Speed Precip Events Conditions
12:53 AM 57.0 °F 53.1 °F 87% 30.13 in 10.0 mi Calm Calm - N/A   Clear
2:53 AM 57.0 °F 53.1 °F 87% 30.12 in 10.0 mi Calm Calm - N/A   Clear
3:53 AM 57.0 °F 53.1 °F 87% 30.11 in 10.0 mi Calm Calm - N/A   Clear
5:53 AM 57.0 °F 53.1 °F 87% 30.13 in 10.0 mi Calm Calm - N/A   Clear
6:53 AM 57.0 °F 53.1 °F 87% 30.14 in 10.0 mi Calm Calm - N/A   Clear
7:53 AM 60.1 °F 53.1 °F 78% 30.15 in 10.0 mi Calm Calm - N/A   Clear
8:53 AM 62.1 °F 55.0 °F 78% 30.15 in 10.0 mi Calm Calm - N/A   Clear
9:53 AM 66.0 °F 54.0 °F 65% 30.16 in 10.0 mi SSE 5.8 mph - N/A   Clear
11:53 AM 73.0 °F 54.0 °F 51% 30.16 in 10.0 mi SSE 6.9 mph - N/A   Clear
12:53 PM 75.0 °F 51.1 °F 43% 30.15 in 10.0 mi ESE 10.4 mph - N/A   Clear
1:53 PM 73.0 °F 52.0 °F 48% 30.14 in 10.0 mi South 11.5 mph - N/A   Partly Cloudy
2:53 PM 72.0 °F 53.1 °F 51% 30.14 in 10.0 mi South 8.1 mph - N/A   Mostly Cloudy
3:53 PM 73.9 °F 53.1 °F 48% 30.13 in 10.0 mi SSW 9.2 mph - N/A   Overcast
4:53 PM 75.9 °F 52.0 °F 43% 30.11 in 10.0 mi South 8.1 mph - N/A   Mostly Cloudy
5:53 PM 75.9 °F 52.0 °F 43% 30.09 in 10.0 mi SSE 6.9 mph - N/A   Clear
6:53 PM 75.0 °F 51.1 °F 43% 30.08 in 10.0 mi SSE 6.9 mph - N/A   Clear
7:53 PM 73.0 °F 53.1 °F 49% 30.07 in 10.0 mi South 6.9 mph - N/A   Clear
8:53 PM 70.0 °F 54.0 °F 57% 30.08 in 10.0 mi SSE 3.5 mph - N/A   Clear
9:53 PM 66.9 °F 54.0 °F 63% 30.08 in 10.0 mi Calm Calm - N/A   Clear
10:53 PM 62.1 °F 55.0 °F 78% 30.10 in 10.0 mi Calm Calm - N/A   Clear
11:53 PM 59.0 °F 55.0 °F 87% 30.09 in 10.0 mi Calm Calm - N/A   Clear